Year,Month,Day,Hour,Minute,Value (Times are PST for insolation in W/m^2)
2017,04,28,00,00,0.00
2017,04,28,00,01,0.00
2017,04,28,00,02,0.00
2017,04,28,00,03,0.00
2017,04,28,00,04,0.00
2017,04,28,00,05,0.00
2017,04,28,00,06,0.00
2017,04,28,00,07,0.00
2017,04,28,00,08,0.00
2017,04,28,00,09,0.00
2017,04,28,00,10,0.00
2017,04,28,00,11,0.00
2017,04,28,00,12,0.00
2017,04,28,00,13,0.00
2017,04,28,00,14,0.00
2017,04,28,00,15,0.00
2017,04,28,00,16,0.00
2017,04,28,00,17,0.00
2017,04,28,00,18,0.00
2017,04,28,00,19,0.00
2017,04,28,00,20,0.00
2017,04,28,00,21,0.00
2017,04,28,00,22,0.00
2017,04,28,00,23,0.00
2017,04,28,00,24,0.00
2017,04,28,00,25,0.00
2017,04,28,00,26,0.00
2017,04,28,00,27,0.00
2017,04,28,00,28,0.00
2017,04,28,00,29,0.00
2017,04,28,00,30,0.00
2017,04,28,00,31,0.00
2017,04,28,00,32,0.00
2017,04,28,00,33,0.00
2017,04,28,00,34,0.00
2017,04,28,00,35,0.00
2017,04,28,00,36,0.00
2017,04,28,00,37,0.00
2017,04,28,00,38,0.00
2017,04,28,00,39,0.00
2017,04,28,00,40,0.00
2017,04,28,00,41,0.00
2017,04,28,00,42,0.00
2017,04,28,00,43,0.00
2017,04,28,00,44,0.00
2017,04,28,00,45,0.00
2017,04,28,00,46,0.00
2017,04,28,00,47,0.00
2017,04,28,00,48,0.00
2017,04,28,00,49,0.00
2017,04,28,00,50,0.00
2017,04,28,00,51,0.00
2017,04,28,00,52,0.00
2017,04,28,00,53,0.00
2017,04,28,00,54,0.00
2017,04,28,00,55,0.00
2017,04,28,00,56,0.00
2017,04,28,00,57,0.00
2017,04,28,00,58,0.00
2017,04,28,00,59,0.00
2017,04,28,01,00,0.00
2017,04,28,01,01,0.00
2017,04,28,01,02,0.00
2017,04,28,01,03,0.00
2017,04,28,01,04,0.00
2017,04,28,01,05,0.00
2017,04,28,01,06,0.00
2017,04,28,01,07,0.00
2017,04,28,01,08,0.00
2017,04,28,01,09,0.00
2017,04,28,01,10,0.00
2017,04,28,01,11,0.00
2017,04,28,01,12,0.00
2017,04,28,01,13,0.00
2017,04,28,01,14,0.00
2017,04,28,01,15,0.00
2017,04,28,01,16,0.00
2017,04,28,01,17,0.00
2017,04,28,01,18,0.00
2017,04,28,01,19,0.00
2017,04,28,01,20,0.00
2017,04,28,01,21,0.00
2017,04,28,01,22,0.00
2017,04,28,01,23,0.00
2017,04,28,01,24,0.00
2017,04,28,01,25,0.00
2017,04,28,01,26,0.00
2017,04,28,01,27,0.00
2017,04,28,01,28,0.00
2017,04,28,01,29,0.00
2017,04,28,01,30,0.00
2017,04,28,01,31,0.00
2017,04,28,01,32,0.00
2017,04,28,01,33,0.00
2017,04,28,01,34,0.00
2017,04,28,01,35,0.00
2017,04,28,01,36,0.00
2017,04,28,01,37,0.00
2017,04,28,01,38,0.00
2017,04,28,01,39,0.00
2017,04,28,01,40,0.00
2017,04,28,01,41,0.00
2017,04,28,01,42,0.00
2017,04,28,01,43,0.00
2017,04,28,01,44,0.00
2017,04,28,01,45,0.00
2017,04,28,01,46,0.00
2017,04,28,01,47,0.00
2017,04,28,01,48,0.00
2017,04,28,01,49,0.00
2017,04,28,01,50,0.00
2017,04,28,01,51,0.00
2017,04,28,01,52,0.00
2017,04,28,01,53,0.00
2017,04,28,01,54,0.00
2017,04,28,01,55,0.00
2017,04,28,01,56,0.00
2017,04,28,01,57,0.00
2017,04,28,01,58,0.00
2017,04,28,01,59,0.00
2017,04,28,02,00,0.00
2017,04,28,02,01,0.00
2017,04,28,02,02,0.00
2017,04,28,02,03,0.00
2017,04,28,02,04,0.00
2017,04,28,02,05,0.00
2017,04,28,02,06,0.00
2017,04,28,02,07,0.00
2017,04,28,02,08,0.00
2017,04,28,02,09,0.00
2017,04,28,02,10,0.00
2017,04,28,02,11,0.00
2017,04,28,02,12,0.00
2017,04,28,02,13,0.00
2017,04,28,02,14,0.00
2017,04,28,02,15,0.00
2017,04,28,02,16,0.00
2017,04,28,02,17,0.00
2017,04,28,02,18,0.00
2017,04,28,02,19,0.00
2017,04,28,02,20,0.00
2017,04,28,02,21,0.00
2017,04,28,02,22,0.00
2017,04,28,02,23,0.00
2017,04,28,02,24,0.00
2017,04,28,02,25,0.00
2017,04,28,02,26,0.00
2017,04,28,02,27,0.00
2017,04,28,02,28,0.00
2017,04,28,02,29,0.00
2017,04,28,02,30,0.00
2017,04,28,02,31,0.00
2017,04,28,02,32,0.00
2017,04,28,02,33,0.00
2017,04,28,02,34,0.00
2017,04,28,02,35,0.00
2017,04,28,02,36,0.00
2017,04,28,02,37,0.00
2017,04,28,02,38,0.00
2017,04,28,02,39,0.00
2017,04,28,02,40,0.00
2017,04,28,02,41,0.00
2017,04,28,02,42,0.00
2017,04,28,02,43,0.00
2017,04,28,02,44,0.00
2017,04,28,02,45,0.00
2017,04,28,02,46,0.00
2017,04,28,02,47,0.00
2017,04,28,02,48,0.00
2017,04,28,02,49,0.00
2017,04,28,02,50,0.00
2017,04,28,02,51,0.00
2017,04,28,02,52,0.00
2017,04,28,02,53,0.00
2017,04,28,02,54,0.00
2017,04,28,02,55,0.00
2017,04,28,02,56,0.00
2017,04,28,02,57,0.00
2017,04,28,02,58,0.00
2017,04,28,02,59,0.00
2017,04,28,03,00,0.00
2017,04,28,03,01,0.00
2017,04,28,03,02,0.00
2017,04,28,03,03,0.00
2017,04,28,03,04,0.00
2017,04,28,03,05,0.00
2017,04,28,03,06,0.00
2017,04,28,03,07,0.00
2017,04,28,03,08,0.00
2017,04,28,03,09,0.00
2017,04,28,03,10,0.00
2017,04,28,03,11,0.00
2017,04,28,03,12,0.00
2017,04,28,03,13,0.00
2017,04,28,03,14,0.00
2017,04,28,03,15,0.00
2017,04,28,03,16,0.00
2017,04,28,03,17,0.00
2017,04,28,03,18,0.00
2017,04,28,03,19,0.00
2017,04,28,03,20,0.00
2017,04,28,03,21,0.00
2017,04,28,03,22,0.00
2017,04,28,03,23,0.00
2017,04,28,03,24,0.00
2017,04,28,03,25,0.00
2017,04,28,03,26,0.00
2017,04,28,03,27,0.00
2017,04,28,03,28,0.00
2017,04,28,03,29,0.00
2017,04,28,03,30,0.00
2017,04,28,03,31,0.00
2017,04,28,03,32,0.00
2017,04,28,03,33,0.00
2017,04,28,03,34,0.00
2017,04,28,03,35,0.00
2017,04,28,03,36,0.00
2017,04,28,03,37,0.00
2017,04,28,03,38,0.00
2017,04,28,03,39,0.00
2017,04,28,03,40,0.00
2017,04,28,03,41,0.00
2017,04,28,03,42,0.00
2017,04,28,03,43,0.00
2017,04,28,03,44,0.00
2017,04,28,03,45,0.00
2017,04,28,03,46,0.00
2017,04,28,03,47,0.00
2017,04,28,03,48,0.00
2017,04,28,03,49,0.00
2017,04,28,03,50,0.00
2017,04,28,03,51,0.00
2017,04,28,03,52,0.00
2017,04,28,03,53,0.00
2017,04,28,03,54,0.00
2017,04,28,03,55,0.00
2017,04,28,03,56,0.00
2017,04,28,03,57,0.00
2017,04,28,03,58,0.00
2017,04,28,03,59,0.00
2017,04,28,04,00,0.00
2017,04,28,04,01,0.00
2017,04,28,04,02,0.00
2017,04,28,04,03,0.00
2017,04,28,04,04,0.00
2017,04,28,04,05,0.00
2017,04,28,04,06,0.00
2017,04,28,04,07,0.00
2017,04,28,04,08,0.00
2017,04,28,04,09,0.00
2017,04,28,04,10,0.00
2017,04,28,04,11,0.00
2017,04,28,04,12,0.00
2017,04,28,04,13,0.00
2017,04,28,04,14,0.00
2017,04,28,04,15,0.00
2017,04,28,04,16,0.00
2017,04,28,04,17,0.00
2017,04,28,04,18,0.00
2017,04,28,04,19,0.00
2017,04,28,04,20,0.00
2017,04,28,04,21,0.00
2017,04,28,04,22,0.00
2017,04,28,04,23,0.00
2017,04,28,04,24,0.00
2017,04,28,04,25,0.00
2017,04,28,04,26,0.00
2017,04,28,04,27,0.00
2017,04,28,04,28,0.00
2017,04,28,04,29,0.00
2017,04,28,04,30,0.00
2017,04,28,04,31,0.00
2017,04,28,04,32,0.00
2017,04,28,04,33,0.00
2017,04,28,04,34,0.00
2017,04,28,04,35,0.00
2017,04,28,04,36,0.00
2017,04,28,04,37,0.00
2017,04,28,04,38,0.00
2017,04,28,04,39,0.00
2017,04,28,04,40,0.00
2017,04,28,04,41,0.00
2017,04,28,04,42,0.00
2017,04,28,04,43,0.00
2017,04,28,04,44,0.00
2017,04,28,04,45,0.00
2017,04,28,04,46,0.00
2017,04,28,04,47,0.00
2017,04,28,04,48,0.00
2017,04,28,04,49,0.00
2017,04,28,04,50,0.00
2017,04,28,04,51,0.00
2017,04,28,04,52,0.00
2017,04,28,04,53,0.00
2017,04,28,04,54,0.00
2017,04,28,04,55,0.00
2017,04,28,04,56,0.00
2017,04,28,04,57,0.00
2017,04,28,04,58,0.00
2017,04,28,04,59,0.00
2017,04,28,05,00,0.00
2017,04,28,05,01,0.00
2017,04,28,05,02,0.00
2017,04,28,05,03,0.00
2017,04,28,05,04,0.00
2017,04,28,05,05,0.00
2017,04,28,05,06,0.00
2017,04,28,05,07,0.00
2017,04,28,05,08,0.00
2017,04,28,05,09,0.00
2017,04,28,05,10,0.00
2017,04,28,05,11,0.00
2017,04,28,05,12,0.00
2017,04,28,05,13,0.00
2017,04,28,05,14,0.00
2017,04,28,05,15,0.00
2017,04,28,05,16,0.00
2017,04,28,05,17,0.00
2017,04,28,05,18,0.00
2017,04,28,05,19,0.00
2017,04,28,05,20,0.00
2017,04,28,05,21,0.00
2017,04,28,05,22,0.00
2017,04,28,05,23,0.00
2017,04,28,05,24,0.00
2017,04,28,05,25,0.00
2017,04,28,05,26,0.00
2017,04,28,05,27,0.00
2017,04,28,05,28,0.00
2017,04,28,05,29,0.00
2017,04,28,05,30,0.00
2017,04,28,05,31,0.00
2017,04,28,05,32,0.00
2017,04,28,05,33,0.00
2017,04,28,05,34,0.00
2017,04,28,05,35,0.00
2017,04,28,05,36,0.00
2017,04,28,05,37,0.00
2017,04,28,05,38,0.00
2017,04,28,05,39,0.00
2017,04,28,05,40,0.00
2017,04,28,05,41,0.00
2017,04,28,05,42,0.00
2017,04,28,05,43,0.00
2017,04,28,05,44,0.00
2017,04,28,05,45,0.00
2017,04,28,05,46,0.00
2017,04,28,05,47,0.00
2017,04,28,05,48,0.00
2017,04,28,05,49,0.00
2017,04,28,05,50,0.00
2017,04,28,05,51,0.00
2017,04,28,05,52,0.00
2017,04,28,05,53,3.60
2017,04,28,05,54,5.00
2017,04,28,05,55,5.00
2017,04,28,05,56,5.00
2017,04,28,05,57,5.00
2017,04,28,05,58,6.20
2017,04,28,05,59,7.00
2017,04,28,06,00,7.00
2017,04,28,06,01,7.00
2017,04,28,06,02,7.00
2017,04,28,06,03,7.00
2017,04,28,06,04,8.30
2017,04,28,06,05,9.00
2017,04,28,06,06,9.00
2017,04,28,06,07,9.50
2017,04,28,06,08,11.00
2017,04,28,06,09,11.00
2017,04,28,06,10,11.00
2017,04,28,06,11,11.00
2017,04,28,06,12,11.00
2017,04,28,06,13,11.30
2017,04,28,06,14,12.00
2017,04,28,06,15,12.00
2017,04,28,06,16,12.00
2017,04,28,06,17,12.00
2017,04,28,06,18,12.30
2017,04,28,06,19,14.00
2017,04,28,06,20,14.00
2017,04,28,06,21,14.00
2017,04,28,06,22,14.00
2017,04,28,06,23,15.80
2017,04,28,06,24,16.40
2017,04,28,06,25,18.00
2017,04,28,06,26,19.40
2017,04,28,06,27,23.40
2017,04,28,06,28,25.80
2017,04,28,06,29,31.50
2017,04,28,06,30,33.60
2017,04,28,06,31,37.70
2017,04,28,06,32,39.50
2017,04,28,06,33,41.20
2017,04,28,06,34,43.50
2017,04,28,06,35,45.90
2017,04,28,06,36,47.00
2017,04,28,06,37,47.00
2017,04,28,06,38,46.50
2017,04,28,06,39,46.00
2017,04,28,06,40,46.00
2017,04,28,06,41,44.30
2017,04,28,06,42,46.00
2017,04,28,06,43,46.30
2017,04,28,06,44,46.50
2017,04,28,06,45,46.00
2017,04,28,06,46,44.40
2017,04,28,06,47,46.20
2017,04,28,06,48,49.50
2017,04,28,06,49,51.80
2017,04,28,06,50,52.00
2017,04,28,06,51,57.30
2017,04,28,06,52,64.20
2017,04,28,06,53,72.80
2017,04,28,06,54,78.50
2017,04,28,06,55,88.10
2017,04,28,06,56,100.70
2017,04,28,06,57,114.10
2017,04,28,06,58,120.60
2017,04,28,06,59,120.90
2017,04,28,07,00,118.00
2017,04,28,07,01,110.30
2017,04,28,07,02,105.90
2017,04,28,07,03,101.60
2017,04,28,07,04,100.00
2017,04,28,07,05,104.40
2017,04,28,07,06,107.60
2017,04,28,07,07,105.10
2017,04,28,07,08,103.00
2017,04,28,07,09,111.80
2017,04,28,07,10,119.40
2017,04,28,07,11,125.00
2017,04,28,07,12,126.70
2017,04,28,07,13,132.10
2017,04,28,07,14,135.00
2017,04,28,07,15,136.50
2017,04,28,07,16,143.40
2017,04,28,07,17,147.10
2017,04,28,07,18,152.40
2017,04,28,07,19,158.20
2017,04,28,07,20,165.10
2017,04,28,07,21,170.20
2017,04,28,07,22,164.30
2017,04,28,07,23,145.80
2017,04,28,07,24,188.40
2017,04,28,07,25,208.00
2017,04,28,07,26,223.90
2017,04,28,07,27,244.20
2017,04,28,07,28,267.10
2017,04,28,07,29,289.40
2017,04,28,07,30,274.10
2017,04,28,07,31,209.80
2017,04,28,07,32,190.20
2017,04,28,07,33,196.20
2017,04,28,07,34,195.80
2017,04,28,07,35,203.10
2017,04,28,07,36,206.40
2017,04,28,07,37,206.40
2017,04,28,07,38,204.60
2017,04,28,07,39,204.00
2017,04,28,07,40,207.60
2017,04,28,07,41,211.90
2017,04,28,07,42,214.00
2017,04,28,07,43,214.00
2017,04,28,07,44,225.80
2017,04,28,07,45,221.40
2017,04,28,07,46,213.70
2017,04,28,07,47,203.40
2017,04,28,07,48,203.80
2017,04,28,07,49,209.00
2017,04,28,07,50,224.50
2017,04,28,07,51,243.80
2017,04,28,07,52,298.30
2017,04,28,07,53,306.60
2017,04,28,07,54,316.50
2017,04,28,07,55,338.10
2017,04,28,07,56,318.20
2017,04,28,07,57,383.30
2017,04,28,07,58,320.00
2017,04,28,07,59,344.00
2017,04,28,08,00,406.20
2017,04,28,08,01,446.00
2017,04,28,08,02,456.40
2017,04,28,08,03,453.30
2017,04,28,08,04,460.00
2017,04,28,08,05,459.80
2017,04,28,08,06,463.00
2017,04,28,08,07,464.80
2017,04,28,08,08,468.50
2017,04,28,08,09,473.30
2017,04,28,08,10,479.00
2017,04,28,08,11,483.80
2017,04,28,08,12,488.40
2017,04,28,08,13,496.00
2017,04,28,08,14,503.00
2017,04,28,08,15,505.10
2017,04,28,08,16,514.00
2017,04,28,08,17,525.60
2017,04,28,08,18,497.60
2017,04,28,08,19,517.90
2017,04,28,08,20,516.80
2017,04,28,08,21,432.20
2017,04,28,08,22,408.00
2017,04,28,08,23,386.00
2017,04,28,08,24,381.90
2017,04,28,08,25,397.60
2017,04,28,08,26,311.30
2017,04,28,08,27,264.40
2017,04,28,08,28,227.60
2017,04,28,08,29,213.30
2017,04,28,08,30,207.00
2017,04,28,08,31,206.20
2017,04,28,08,32,208.70
2017,04,28,08,33,207.30
2017,04,28,08,34,196.70
2017,04,28,08,35,187.80
2017,04,28,08,36,183.80
2017,04,28,08,37,188.30
2017,04,28,08,38,201.20
2017,04,28,08,39,211.10
2017,04,28,08,40,227.40
2017,04,28,08,41,243.50
2017,04,28,08,42,253.10
2017,04,28,08,43,263.10
2017,04,28,08,44,264.50
2017,04,28,08,45,253.80
2017,04,28,08,46,248.60
2017,04,28,08,47,240.00
2017,04,28,08,48,235.90
2017,04,28,08,49,237.00
2017,04,28,08,50,240.00
2017,04,28,08,51,262.80
2017,04,28,08,52,242.90
2017,04,28,08,53,243.80
2017,04,28,08,54,242.70
2017,04,28,08,55,222.40
2017,04,28,08,56,202.00
2017,04,28,08,57,200.80
2017,04,28,08,58,195.00
2017,04,28,08,59,185.50
2017,04,28,09,00,174.30
2017,04,28,09,01,165.90
2017,04,28,09,02,164.80
2017,04,28,09,03,164.10
2017,04,28,09,04,169.20
2017,04,28,09,05,179.40
2017,04,28,09,06,194.80
2017,04,28,09,07,255.10
2017,04,28,09,08,245.30
2017,04,28,09,09,289.30
2017,04,28,09,10,232.30
2017,04,28,09,11,288.20
2017,04,28,09,12,342.00
2017,04,28,09,13,348.00
2017,04,28,09,14,413.70
2017,04,28,09,15,698.20
2017,04,28,09,16,704.40
2017,04,28,09,17,700.00
2017,04,28,09,18,700.00
2017,04,28,09,19,675.00
2017,04,28,09,20,701.40
2017,04,28,09,21,647.00
2017,04,28,09,22,532.20
2017,04,28,09,23,406.00
2017,04,28,09,24,296.30
2017,04,28,09,25,245.80
2017,04,28,09,26,235.50
2017,04,28,09,27,234.80
2017,04,28,09,28,233.90
2017,04,28,09,29,230.70
2017,04,28,09,30,226.00
2017,04,28,09,31,220.70
2017,04,28,09,32,215.30
2017,04,28,09,33,212.20
2017,04,28,09,34,211.00
2017,04,28,09,35,209.60
2017,04,28,09,36,207.40
2017,04,28,09,37,209.20
2017,04,28,09,38,211.00
2017,04,28,09,39,211.00
2017,04,28,09,40,209.90
2017,04,28,09,41,209.00
2017,04,28,09,42,209.00
2017,04,28,09,43,208.60
2017,04,28,09,44,204.20
2017,04,28,09,45,201.70
2017,04,28,09,46,204.00
2017,04,28,09,47,204.00
2017,04,28,09,48,204.00
2017,04,28,09,49,204.00
2017,04,28,09,50,203.40
2017,04,28,09,51,201.10
2017,04,28,09,52,198.30
2017,04,28,09,53,193.20
2017,04,28,09,54,188.30
2017,04,28,09,55,182.00
2017,04,28,09,56,176.80
2017,04,28,09,57,172.50
2017,04,28,09,58,168.40
2017,04,28,09,59,167.00
2017,04,28,10,00,165.10
2017,04,28,10,01,163.00
2017,04,28,10,02,162.70
2017,04,28,10,03,161.00
2017,04,28,10,04,160.00
2017,04,28,10,05,160.00
2017,04,28,10,06,158.00
2017,04,28,10,07,155.80
2017,04,28,10,08,154.30
2017,04,28,10,09,153.00
2017,04,28,10,10,154.30
2017,04,28,10,11,155.80
2017,04,28,10,12,160.10
2017,04,28,10,13,163.80
2017,04,28,10,14,168.50
2017,04,28,10,15,173.60
2017,04,28,10,16,178.00
2017,04,28,10,17,179.00
2017,04,28,10,18,180.70
2017,04,28,10,19,178.80
2017,04,28,10,20,177.20
2017,04,28,10,21,175.00
2017,04,28,10,22,172.00
2017,04,28,10,23,171.00
2017,04,28,10,24,168.80
2017,04,28,10,25,167.70
2017,04,28,10,26,169.00
2017,04,28,10,27,167.90
2017,04,28,10,28,167.00
2017,04,28,10,29,167.00
2017,04,28,10,30,169.40
2017,04,28,10,31,173.20
2017,04,28,10,32,178.30
2017,04,28,10,33,183.40
2017,04,28,10,34,187.20
2017,04,28,10,35,191.60
2017,04,28,10,36,195.70
2017,04,28,10,37,199.90
2017,04,28,10,38,204.40
2017,04,28,10,39,211.20
2017,04,28,10,40,218.50
2017,04,28,10,41,224.90
2017,04,28,10,42,230.00
2017,04,28,10,43,236.30
2017,04,28,10,44,246.20
2017,04,28,10,45,252.30
2017,04,28,10,46,264.20
2017,04,28,10,47,260.30
2017,04,28,10,48,260.00
2017,04,28,10,49,259.20
2017,04,28,10,50,257.50
2017,04,28,10,51,257.70
2017,04,28,10,52,258.00
2017,04,28,10,53,258.00
2017,04,28,10,54,256.90
2017,04,28,10,55,252.20
2017,04,28,10,56,250.40
2017,04,28,10,57,250.70
2017,04,28,10,58,254.20
2017,04,28,10,59,258.10
2017,04,28,11,00,261.00
2017,04,28,11,01,266.00
2017,04,28,11,02,273.90
2017,04,28,11,03,282.80
2017,04,28,11,04,281.80
2017,04,28,11,05,270.20
2017,04,28,11,06,257.40
2017,04,28,11,07,238.80
2017,04,28,11,08,222.00
2017,04,28,11,09,207.80
2017,04,28,11,10,195.90
2017,04,28,11,11,195.10
2017,04,28,11,12,231.10
2017,04,28,11,13,335.40
2017,04,28,11,14,381.00
2017,04,28,11,15,381.00
2017,04,28,11,16,870.60
2017,04,28,11,17,879.60
2017,04,28,11,18,915.70
2017,04,28,11,19,910.00
2017,04,28,11,20,910.70
2017,04,28,11,21,911.20
2017,04,28,11,22,912.00
2017,04,28,11,23,915.80
2017,04,28,11,24,926.00
2017,04,28,11,25,934.40
2017,04,28,11,26,943.20
2017,04,28,11,27,952.20
2017,04,28,11,28,962.20
2017,04,28,11,29,965.00
2017,04,28,11,30,968.80
2017,04,28,11,31,981.70
2017,04,28,11,32,994.40
2017,04,28,11,33,1005.40
2017,04,28,11,34,1018.80
2017,04,28,11,35,1035.30
2017,04,28,11,36,1046.00
2017,04,28,11,37,1046.00
2017,04,28,11,38,1027.80
2017,04,28,11,39,1024.20
2017,04,28,11,40,1026.90
2017,04,28,11,41,1046.50
2017,04,28,11,42,1032.00
2017,04,28,11,43,1032.00
2017,04,28,11,44,1032.00
2017,04,28,11,45,1032.00
2017,04,28,11,46,323.20
2017,04,28,11,47,289.30
2017,04,28,11,48,279.00
2017,04,28,11,49,277.00
2017,04,28,11,50,274.20
2017,04,28,11,51,281.40
2017,04,28,11,52,278.70
2017,04,28,11,53,282.40
2017,04,28,11,54,278.60
2017,04,28,11,55,272.00
2017,04,28,11,56,266.00
2017,04,28,11,57,267.00
2017,04,28,11,58,273.40
2017,04,28,11,59,283.30
2017,04,28,12,00,291.10
2017,04,28,12,01,298.50
2017,04,28,12,02,327.70
2017,04,28,12,03,352.80
2017,04,28,12,04,363.70
2017,04,28,12,05,401.00
2017,04,28,12,06,765.00
2017,04,28,12,07,1129.00
2017,04,28,12,08,1129.00
2017,04,28,12,09,379.90
2017,04,28,12,10,301.00
2017,04,28,12,11,261.40
2017,04,28,12,12,191.50
2017,04,28,12,13,181.30
2017,04,28,12,14,173.30
2017,04,28,12,15,163.40
2017,04,28,12,16,160.60
2017,04,28,12,17,152.10
2017,04,28,12,18,151.00
2017,04,28,12,19,152.30
2017,04,28,12,20,157.20
2017,04,28,12,21,166.10
2017,04,28,12,22,182.20
2017,04,28,12,23,196.00
2017,04,28,12,24,207.30
2017,04,28,12,25,213.00
2017,04,28,12,26,218.90
2017,04,28,12,27,230.80
2017,04,28,12,28,236.10
2017,04,28,12,29,224.90
2017,04,28,12,30,219.80
2017,04,28,12,31,216.00
2017,04,28,12,32,219.10
2017,04,28,12,33,265.40
2017,04,28,12,34,265.30
2017,04,28,12,35,249.40
2017,04,28,12,36,253.40
2017,04,28,12,37,246.60
2017,04,28,12,38,226.10
2017,04,28,12,39,210.40
2017,04,28,12,40,203.00
2017,04,28,12,41,193.40
2017,04,28,12,42,184.30
2017,04,28,12,43,179.00
2017,04,28,12,44,180.50
2017,04,28,12,45,177.50
2017,04,28,12,46,176.00
2017,04,28,12,47,179.50
2017,04,28,12,48,188.90
2017,04,28,12,49,200.10
2017,04,28,12,50,212.60
2017,04,28,12,51,216.60
2017,04,28,12,52,227.00
2017,04,28,12,53,244.30
2017,04,28,12,54,266.30
2017,04,28,12,55,280.20
2017,04,28,12,56,298.30
2017,04,28,12,57,322.00
2017,04,28,12,58,336.80
2017,04,28,12,59,355.00
2017,04,28,13,00,416.70
2017,04,28,13,01,453.80
2017,04,28,13,02,476.00
2017,04,28,13,03,647.00
2017,04,28,13,04,540.60
2017,04,28,13,05,381.00
2017,04,28,13,06,381.00
2017,04,28,13,07,297.50
2017,04,28,13,08,263.60
2017,04,28,13,09,250.80
2017,04,28,13,10,241.00
2017,04,28,13,11,244.00
2017,04,28,13,12,255.80
2017,04,28,13,13,277.90
2017,04,28,13,14,305.50
2017,04,28,13,15,330.10
2017,04,28,13,16,348.40
2017,04,28,13,17,372.30
2017,04,28,13,18,445.20
2017,04,28,13,19,466.00
2017,04,28,13,20,542.60
2017,04,28,13,21,849.00
2017,04,28,13,22,849.00
2017,04,28,13,23,849.00
2017,04,28,13,24,677.80
2017,04,28,13,25,622.30
2017,04,28,13,26,621.00
2017,04,28,13,27,638.30
2017,04,28,13,28,673.00
2017,04,28,13,29,1005.20
2017,04,28,13,30,1194.20
2017,04,28,13,31,1190.90
2017,04,28,13,32,1197.80
2017,04,28,13,33,1184.30
2017,04,28,13,34,1179.30
2017,04,28,13,35,1132.90
2017,04,28,13,36,1113.00
2017,04,28,13,37,1113.00
2017,04,28,13,38,1113.00
2017,04,28,13,39,1113.00
2017,04,28,13,40,1135.00
2017,04,28,13,41,1155.00
2017,04,28,13,42,1155.00
2017,04,28,13,43,932.00
2017,04,28,13,44,994.60
2017,04,28,13,45,1166.60
2017,04,28,13,46,1192.00
2017,04,28,13,47,1119.20
2017,04,28,13,48,1095.00
2017,04,28,13,49,386.40
2017,04,28,13,50,380.40
2017,04,28,13,51,379.60
2017,04,28,13,52,433.30
2017,04,28,13,53,468.00
2017,04,28,13,54,468.00
2017,04,28,13,55,468.00
2017,04,28,13,56,697.00
2017,04,28,13,57,1160.10
2017,04,28,13,58,1167.00
2017,04,28,13,59,1167.00
2017,04,28,14,00,1138.60
2017,04,28,14,01,547.90
2017,04,28,14,02,587.00
2017,04,28,14,03,497.50
2017,04,28,14,04,394.20
2017,04,28,14,05,334.00
2017,04,28,14,06,289.00
2017,04,28,14,07,321.70
2017,04,28,14,08,367.00
2017,04,28,14,09,734.50
2017,04,28,14,10,1102.00
2017,04,28,14,11,1058.30
2017,04,28,14,12,1042.60
2017,04,28,14,13,1041.40
2017,04,28,14,14,1005.80
2017,04,28,14,15,925.40
2017,04,28,14,16,905.00
2017,04,28,14,17,942.60
2017,04,28,14,18,931.40
2017,04,28,14,19,969.00
2017,04,28,14,20,958.70
2017,04,28,14,21,945.70
2017,04,28,14,22,930.80
2017,04,28,14,23,840.00
2017,04,28,14,24,808.90
2017,04,28,14,25,831.20
2017,04,28,14,26,889.00
2017,04,28,14,27,922.50
2017,04,28,14,28,916.70
2017,04,28,14,29,916.90
2017,04,28,14,30,907.80
2017,04,28,14,31,884.60
2017,04,28,14,32,893.40
2017,04,28,14,33,904.00
2017,04,28,14,34,875.30
2017,04,28,14,35,870.70
2017,04,28,14,36,872.00
2017,04,28,14,37,677.30
2017,04,28,14,38,206.70
2017,04,28,14,39,198.00
2017,04,28,14,40,210.00
2017,04,28,14,41,211.00
2017,04,28,14,42,346.60
2017,04,28,14,43,924.80
2017,04,28,14,44,932.50
2017,04,28,14,45,913.00
2017,04,28,14,46,900.00
2017,04,28,14,47,442.60
2017,04,28,14,48,415.00
2017,04,28,14,49,415.00
2017,04,28,14,50,653.00
2017,04,28,14,51,845.20
2017,04,28,14,52,819.00
2017,04,28,14,53,755.90
2017,04,28,14,54,188.00
2017,04,28,14,55,188.00
2017,04,28,14,56,574.90
2017,04,28,14,57,875.40
2017,04,28,14,58,883.40
2017,04,28,14,59,889.70
2017,04,28,15,00,881.10
2017,04,28,15,01,867.60
2017,04,28,15,02,858.30
2017,04,28,15,03,856.00
2017,04,28,15,04,856.00
2017,04,28,15,05,846.20
2017,04,28,15,06,843.00
2017,04,28,15,07,846.50
2017,04,28,15,08,848.20
2017,04,28,15,09,840.60
2017,04,28,15,10,849.00
2017,04,28,15,11,853.00
2017,04,28,15,12,853.00
2017,04,28,15,13,882.20
2017,04,28,15,14,905.30
2017,04,28,15,15,896.00
2017,04,28,15,16,802.50
2017,04,28,15,17,806.80
2017,04,28,15,18,925.00
2017,04,28,15,19,925.00
2017,04,28,15,20,925.00
2017,04,28,15,21,380.70
2017,04,28,15,22,170.20
2017,04,28,15,23,191.40
2017,04,28,15,24,247.50
2017,04,28,15,25,297.00
2017,04,28,15,26,297.00
2017,04,28,15,27,726.00
2017,04,28,15,28,818.80
2017,04,28,15,29,827.90
2017,04,28,15,30,806.80
2017,04,28,15,31,807.60
2017,04,28,15,32,824.80
2017,04,28,15,33,825.80
2017,04,28,15,34,814.00
2017,04,28,15,35,828.60
2017,04,28,15,36,826.30
2017,04,28,15,37,834.00
2017,04,28,15,38,829.70
2017,04,28,15,39,819.10
2017,04,28,15,40,807.70
2017,04,28,15,41,807.80
2017,04,28,15,42,802.00
2017,04,28,15,43,795.00
2017,04,28,15,44,793.80
2017,04,28,15,45,793.40
2017,04,28,15,46,810.00
2017,04,28,15,47,821.00
2017,04,28,15,48,815.60
2017,04,28,15,49,786.20
2017,04,28,15,50,787.30
2017,04,28,15,51,793.00
2017,04,28,15,52,793.00
2017,04,28,15,53,793.00
2017,04,28,15,54,793.00
2017,04,28,15,55,777.00
2017,04,28,15,56,768.60
2017,04,28,15,57,777.80
2017,04,28,15,58,792.20
2017,04,28,15,59,788.00
2017,04,28,16,00,788.00
2017,04,28,16,01,788.00
2017,04,28,16,02,788.00
2017,04,28,16,03,766.80
2017,04,28,16,04,769.20
2017,04,28,16,05,749.00
2017,04,28,16,06,728.00
2017,04,28,16,07,728.60
2017,04,28,16,08,729.00
2017,04,28,16,09,206.90
2017,04,28,16,10,144.60
2017,04,28,16,11,140.70
2017,04,28,16,12,147.30
2017,04,28,16,13,154.20
2017,04,28,16,14,173.80
2017,04,28,16,15,212.20
2017,04,28,16,16,329.80
2017,04,28,16,17,789.80
2017,04,28,16,18,756.20
2017,04,28,16,19,727.90
2017,04,28,16,20,711.40
2017,04,28,16,21,696.10
2017,04,28,16,22,690.10
2017,04,28,16,23,686.60
2017,04,28,16,24,682.70
2017,04,28,16,25,674.00
2017,04,28,16,26,667.00
2017,04,28,16,27,660.50
2017,04,28,16,28,655.50
2017,04,28,16,29,653.10
2017,04,28,16,30,650.30
2017,04,28,16,31,649.00
2017,04,28,16,32,649.90
2017,04,28,16,33,648.80
2017,04,28,16,34,644.40
2017,04,28,16,35,636.70
2017,04,28,16,36,638.70
2017,04,28,16,37,637.70
2017,04,28,16,38,635.10
2017,04,28,16,39,619.70
2017,04,28,16,40,563.10
2017,04,28,16,41,611.60
2017,04,28,16,42,584.10
2017,04,28,16,43,607.00
2017,04,28,16,44,597.70
2017,04,28,16,45,588.30
2017,04,28,16,46,598.90
2017,04,28,16,47,603.80
2017,04,28,16,48,583.70
2017,04,28,16,49,563.90
2017,04,28,16,50,573.50
2017,04,28,16,51,574.70
2017,04,28,16,52,582.70
2017,04,28,16,53,577.80
2017,04,28,16,54,524.20
2017,04,28,16,55,480.10
2017,04,28,16,56,518.70
2017,04,28,16,57,515.50
2017,04,28,16,58,520.30
2017,04,28,16,59,530.50
2017,04,28,17,00,539.80
2017,04,28,17,01,546.00
2017,04,28,17,02,564.50
2017,04,28,17,03,555.50
2017,04,28,17,04,538.10
2017,04,28,17,05,514.40
2017,04,28,17,06,503.70